www.pogodaiklimat.ru

Погода и климат >> Архив погоды >> Россия >> Коми >> Мутный Материк


ПОГОДА в Мутном Материке

  • Прогноз погоды в Мутном Материке
  • Монитор погоды в Мутном Материке

АРХИВ ПОГОДЫ в Мутном Материке

Время (UTC), дата Ветер
(напр.,м/с)
 
Видим.   Явления Облачность Т
(С)
Тd
(С)
f
(%)
Тe
(С)
Тes
(С)
Комфортность P
(гПа)
Po
(гПа)
Тmin
(С)
Tmax
(С)
R
(мм)
R24
(мм)
S
(см)
06 17.02 Ю 3 20 км слаб. снег 10/0
[As op]
-8.6 -9.7 92 -15 -14 986.6 977.6
09 17.02 Ю 6 20 км слаб. снег {метель} 10/8 400 м
[Frnb As op]
-8.0 -9.7 88 -16 -16 984.8 975.9
12 17.02 ЮВ 4 20 км слаб. снег {метель} 10/9 400 м
[Frnb As op]
-8.3 -10.1 87 -15 -15 983.6 974.6
15 17.02 ЮВ 3 10 км слаб. снег 10/9 300 м
[Frnb As op]
-9.0 -10.3 90 -15 -15 983.2 974.2 -7.7 0.6
18 17.02 В 2 1000 м сильн. снег 10/10 200 м
[Frnb Ns]
-9.1 -10.2 92 -14 -14 983.2 974.2
21 17.02 СВ 2 1000 м сильн. снег 10/10 200 м
[Frnb Ns]
-8.9 -10.0 92 -13 -13 983.9 974.8
00 18.02 С 4 1000 м сильн. снег 10/10 200 м
[Frnb Ns]
-9.0 -10.1 92 -16 -16 985.6 976.6
03 18.02 С 6 2000 м снег 10/10 180 м
[Frnb Ns]
-9.3 -10.5 91 -18 -18 988.0 979.0 -9.4 7 77
06 18.02 С 7-12
{15}
4000 м слаб. снег {метель} 10/10 300 м
[Frnb Ns]
-11.1 -13.1 85 -20 -20 992.3 983.2 -11.1
09 18.02 С 7-12
{15}
4000 м слаб. снег {метель} 10/9 270 м
[Frnb As op]
-13.3 -15.9 81 -23 -23 997.4 988.1
12 18.02 С 4
{12}
50 км {снег, метель} 3/0
[Ac trans Ci fib]
-15.5 -19.8 70 -23 -23 1002.4 993.0
15 18.02 СЗ 5 50 км 1/0
[Ci fib]
-18.6 -21.1 81 -28 -28 1005.9 996.4 -9.3 2
18 18.02 З 2 50 км 1/0
[Cc]
-19.4 -21.3 85 -25 -25 1007.4 997.8
21 18.02 ЮЗ 3 50 км ясно -22.2 -24.4 82 -30 -30 1007.7 998.0
00 19.02 ЮЗ 4 50 км 9/0
[Cs]
-21.8 -24.0 82 -31 -31 опасность
обморожения
1007.1 997.4
03 19.02 ЮЗ 4 50 км 6/0
[Cs]
-22.2 -24.6 81 -32 -32 опасность
обморожения
1006.2 996.5 -22.7 74
06 19.02 ЮЗ 4 50 км 10/0
[Cs]
-19.8 -22.0 83 -29 -28 1004.6 995.0
09 19.02 ЮЗ 4 50 км 8/0
[Cs]
-17.4 -19.3 85 -26 -25 1002.7 993.2
12 19.02 Ю 2 50 км 9/0
[Cs]
-15.1 -16.7 88 -20 -20 1000.8 991.5
15 19.02 Ю 7-12
{12}
50 км позёмок 10/0
[As trans]
-13.1 -15.0 86 -23 -23 999.2 989.9 -13.1
18 19.02 Ю 7
{13}
50 км {метель} 10/0
[Ac As]
-13.3 -15.6 83 -23 -23 999.2 990.0
21 19.02 ЮЗ 7-11
{12}
20 км слаб. снег {метель} 10/0
[As op]
-13.5 -15.8 83 -23 -23 999.3 990.0
00 20.02 Ю 5
{12}
20 км слаб. снег {метель} 10/0
[Ac As]
-13.6 -15.9 83 -22 -22 999.5 990.2
03 20.02 Ю 4 50 км {снег} 10/10 540 м
[Sc]
-13.7 -15.8 84 -21 -21 1000.1 990.8 -13.8 0.2 70
06 20.02 Ю 4 10 км слаб. снег 10/9 400 м
[Frnb As op]
-13.5 -15.7 83 -21 -21 1000.2 990.9 -13.8
09 20.02 ЮВ 3 20 км слаб. снег 10/9 400 м
[Frnb As op]
-13.7 -16.2 81 -20 -20 999.7 990.4
12 20.02 ЮВ 4 20 км слаб. снег 10/9 400 м
[Frnb As op]
-14.2 -16.8 81 -22 -22 998.5 989.2
15 20.02 ЮВ 4 10 км слаб. снег 10/9 360 м
[Frnb As op]
-13.4 -15.8 82 -21 -21 997.1 987.9 -13.4 0.6
18 20.02 В 3 4000 м слаб. снег 10/9 330 м
[Frnb As op]
-13.1 -15.0 86 -19 -19 995.4 986.1
21 20.02 В 3 1000 м сильн. снег 10/10 200 м
[Frnb Ns]
-12.6 -14.2 88 -19 -19 993.7 984.5
00 21.02 В 3 1000 м сильн. снег 10/10 200 м
[Frnb Ns]
-11.4 -12.8 89 -17 -17 992.4 983.2
03 21.02 В 2 2000 м снег 10/10 450 м
[Frnb Ns]
-10.6 -12.0 89 -15 -15 991.9 982.8 -13.4 5 76
06 21.02 СВ 3 4000 м слаб. снег 10/0
[As op]
-10.2 -11.5 90 -16 -16 993.2 984.0
09 21.02 С 3 20 км слаб. снег 10/0
[As trans]
-9.8 -11.4 88 -16 -15 994.9 985.8
12 21.02 С 7-10
{10}
10 км слаб. снег {метель} 10/0
[As op]
-12.5 -14.3 86 -22 -22 998.0 988.8
15 21.02 С 6
{11}
20 км слаб. снег {метель} 10/0
[As op]
-15.0 -17.2 83 -25 -25 1002.1 992.7 -9.7 2
18 21.02 С 6-10
{11}
50 км позёмок {снег} 9/0
[As trans Cs]
-15.8 -18.3 81 -26 -26 1006.3 996.8
21 21.02 С 6
{11}
20 км слаб. снег {метель} 10/0
[Ac As]
-16.2 -18.6 82 -26 -26 1010.6 1001.1
00 22.02 С 6 50 км позёмок {снег} 6/0
[Ac trans Ci fib]
-18.7 -21.2 81 -29 -29 1014.1 1004.5
03 22.02 С 5 50 км {метель} 1/0
[Ac trans]
-21.1 -25.2 69 -31 -31 опасность
обморожения
1017.7 1008.0 -21.1 0.5 74
06 22.02 С 2 50 км {метель} ясно -19.4 -25.0 61 -25 -24 1020.4 1010.7 -21.3
09 22.02 С 3 50 км ясно -14.2 -20.2 60 -21 -20 1022.6 1013.1
12 22.02 СЗ 2 50 км ясно -13.4 -20.0 58 -18 -18 1023.8 1014.3
15 22.02 З 1 50 км ясно -16.1 -20.9 66 -19 -19 1024.7 1015.1 -12.8
18 22.02 ЮЗ 2 50 км ясно -20.2 -21.9 86 -26 -26 1024.4 1014.6
21 22.02 ЮЗ 3 50 км ясно -22.8 -25.1 81 -31 -31 опасность
обморожения
1022.9 1013.0
00 23.02 ЮЗ 4 50 км 6/0
[Cs]
-22.4 -24.7 81 -32 -32 опасность
обморожения
1020.0 1010.1
03 23.02 ЮЗ 5 50 км 8/0
[Ac As]
-19.8 -21.9 83 -30 -30 1016.3 1006.6 -23.5 74
06 23.02 ЮЗ 6 50 км позёмок 10/0
[Ac As]
-17.0 -18.9 85 -27 -27 1012.9 1003.3
09 23.02 ЮЗ 7-10
{11}
50 км позёмок 10/0
[Ac As]
-12.6 -14.6 85 -22 -22 1008.9 999.6
12 23.02 ЮЗ 5
{11}
10 км слаб. снег {метель} 10/0
[As op]
-11.2 -13.4 84 -19 -19 1007.0 997.7
15 23.02 ЮЗ 5
{10}
20 км слаб. снег 10/9 360 м
[Frnb As op]
-10.6 -12.6 85 -18 -18 1005.5 996.3 -10.6 0.4
18 23.02 ЮЗ 4 10 км слаб. снег 10/0 500 м
[As op]
-10.5 -12.3 87 -18 -18 1004.0 994.8
21 23.02 ЮЗ 4 2000 м снег 10/10 450 м
[Frnb Ns]
-9.8 -11.1 90 -17 -17 1002.4 993.3
00 24.02 ЮЗ 4 2000 м снег 10/10 240 м
[Frnb Ns]
-8.4 -9.6 91 -15 -15 1000.8 991.6

 

Местоположение метеостанции Мутный Материк (Коми, Россия): широта 65.95 долгота 55.17 высота над уровнем моря 71 м.

В архиве по умолчанию представлена погода в Мутном Материке за последнюю неделю. Архивные данные за месяц целиком и за предыдущие месяцы, начиная с января 2011 года, Вы можете получить, выбрав интересующий диапазон дат из раскрывающегося списка и нажав кнопку "Ввод!".


*Определитесь, кто Вы:
робот инопланетянин человек

Внимание! Время в таблицах - всемирное. Для получения местного времени необходимо прибавить поправку, которая равна 3 ч.

Смотрите также архив погоды в соседних городах и на ближайших метеорологических станциях:

Погода в Усть-Усе (Коми, Россия) (79 км)
Погода в Усинске (Коми, Россия) (100 км)
Погода в Ижме (Коми, Россия) (120 км)
Погода в Окуневом Носу (Коми, Россия) (121 км)
Погода в Печоре (Коми, Россия) (128 км)
Погода в Усть-Цильме (Коми, Россия) (145 км)
Погода в Ираеле (Коми, Россия) (159 км)
Погода в Кедва-Воме (Коми, Россия) (206 км)
Погода в Хорей-Вере (Ненецкий АО, Россия) (207 км)
Погода в Нарьян-Маре (Ненецкий АО, Россия) (209 км)

Пояснения к столбцам:

Ветер - указаны скорость ветра в м/с - средняя за 10 мин, порывы в срок и между сроками (в фигурных скобках) и направление, откуда дует ветер: С - северный, СВ - северо-восточный, В - восточный, ЮВ - юго-восточный, Ю - южный, ЮЗ - юго-западный, З - западный, СЗ - северо-западный.
Видимость - горизонтальная дальность видимости в метрах или километрах. При видимости от 1 до 10 км при отсутствии осадков обычно наблюдается дымка, при ухудшении видимости до 1 км и менее - туман. В сухую погоду видимость может ухудшаться дымом, пылью или мглою.
Явления - указаны атмосферные явления, наблюдавшиеся в срок или в последний час перед сроком; фигурными скобками обозначены явления, наблюдавшиеся между сроками (за 1-3 часа до срока); квадратными скобками обозначены град или гололедные отложения с указанием их диаметра в мм.
Облачность - указаны через наклонную черту общая и нижняя облачность в баллах и высота нижней границы облаков в метрах; квадратными скобками обозначены формы облаков: Ci - перистые, Cs - перисто-слоистые, Cc - перисто-кучевые, Ac - высококучевые, As - высокослоистые, Sc - слоисто-кучевые, Ns - слоисто-дождевые, Cu - кучевые, Cb - кучево-дождевые. Подробнее классификацию облаков см. в Атласе облаков (PDF).
T - Температура воздуха - температура, измеренная на высоте 2 м над землей.
Td - Температура точки росы - температура, при понижении до которой содержащийся в воздухе водяной пар достигнет насыщения.
f - Относительная влажность воздуха - влажноcть воздуха, измеренная на высоте 2 м над землей.
Te - Эффективная температура - температура, которую ощущает одетый по сезону человек в тени. Характеристика душности погоды. При расчете учитывается влияние влажности воздуха и скорости ветра на теплоощущения человека.
Tes - Эффективная температура на солнце - температура, которую ощущает человек, с поправкой на солнечный нагрев. Характеристика знойности погоды. Зависит от высоты солнца над горизонтом, облачности и скорости ветра. Ночью, в пасмурную погоду, а также при ветре 12 м/с и более поправка равна нулю.
P - Атмосферное давление - приведенное к уровню моря атмосферное давление.
Po - Атмосферное давление - измеренное на уровне метеостанции атмосферное давление.
Tmin - Минимальная температура - минимум температуры воздуха на высоте 2 м над землей.
Tmax - Максимальная температура - максимум температуры воздуха на высоте 2 м над землей.
R - Количество осадков - Количество выпавших осадков за период времени, мм. При наведении курсора мыши на число - период времени, за который выпало указанное количество осадков.
R24 - Количество осадков - Количество выпавших осадков за 24 часа, мм.
S - Снежный покров - Высота снежного покрова, см. При наведении курсора мыши на число - состояние снежного покрова и степень покрытия местности в баллах.